LEMUR-2-LYNSEY-SYMO

Last updated on Wed Feb 14 2018 16:20:45 GMT+0000 (Greenwich Mean Time)

1 42779U 17036Q 18045.44998040 .00002079 00000-0 94998-4 0 9993 2 42779 97.4195 107.1873 0013854 139.4674 220.7597 15.21601290 35847
UTC large
Height (km)
Speed (km/s)
/
Latitude / Longitude
Inclination (degrees)
Orbital Period (minutes)
Azimuth
Elevation
Range (km)
Doppler Factor

Next 0 passes for location: London (51.5072 / 0.1276)

Sorry there are no passes over London.